When you browse on this site, cookies collect data to enhance your experience and personalize the content and advertising you see.
Visit our Privacy Policy to learn more. By continuing to use the site, you agree to this use of cookies and data.
  • In Hungary
  • List of Countries
  • For 7 days
  • Water Temperature
  • Satellite Maps
  • Weather Map
  • News
  • Weather Widgets
  • user-avatar
    Login

    Hourly Weather Cuapiaxtla

    Today, 20 February, Wednesday

    Time Temperature Precipitation Wind Pressure Humidity
    00:00 +13°C° 0 mm 2 mps 567 mmHg 45%
    01:00 +12°C° 0 mm 2 mps 566 mmHg 48%
    02:00 +11°C° 0 mm 1 mps 566 mmHg 50%
    03:00 +11°C° 0 mm 1 mps 565 mmHg 52%
    04:00 +10°C° 0 mm 1 mps 565 mmHg 54%
    05:00 +10°C° 0 mm 1 mps 565 mmHg 55%
    06:00 +11°C° 0 mm 1 mps 566 mmHg 50%
    07:00 +13°C° 0 mm 1 mps 567 mmHg 44%
    08:00 +15°C° 0 mm 1 mps 568 mmHg 39%
    09:00 +17°C° 0 mm 2 mps 570 mmHg 32%
    10:00 +19°C° 0 mm 2 mps 571 mmHg 26%
    11:00 +21°C° 0 mm 3 mps 572 mmHg 20%
    12:00 +22°C° 0 mm 4 mps 572 mmHg 19%
    13:00 +23°C° 0 mm 5 mps 571 mmHg 19%
    14:00 +23°C° 0 mm 6 mps 571 mmHg 18%
    15:00 +22°C° 0 mm 6 mps 570 mmHg 21%
    16:00 +21°C° 0 mm 6 mps 570 mmHg 25%
    17:00 +20°C° 0 mm 6 mps 569 mmHg 28%
    18:00 +17°C° 0 mm 5 mps 569 mmHg 33%
    19:00 +15°C° 0 mm 4 mps 569 mmHg 38%
    20:00 +14°C° 0 mm 3 mps 568 mmHg 43%
    21:00 +13°C° 0 mm 3 mps 568 mmHg 45%
    22:00 +13°C° 0 mm 3 mps 568 mmHg 47%
    23:00 +13°C° 0 mm 3 mps 568 mmHg 48%

    Tomorrow, 21 February, Thursday

    Time Temperature Precipitation Wind Pressure Humidity
    00:00 +12°C° 0 mm 3 mps 568 mmHg 54%
    01:00 +12°C° 0 mm 2 mps 567 mmHg 59%
    02:00 +10°C° 0 mm 2 mps 566 mmHg 64%
    03:00 +10°C° 0 mm 2 mps 566 mmHg 67%
    04:00 +9°C° 0 mm 2 mps 566 mmHg 69%
    05:00 +9°C° 0 mm 2 mps 566 mmHg 71%
    06:00 +10°C° 0 mm 2 mps 567 mmHg 65%
    07:00 +13°C° 0 mm 2 mps 568 mmHg 58%
    08:00 +14°C° 0 mm 2 mps 569 mmHg 51%
    09:00 +16°C° 0 mm 3 mps 570 mmHg 43%
    10:00 +19°C° 0 mm 3 mps 571 mmHg 35%
    11:00 +21°C° 0 mm 4 mps 572 mmHg 26%
    12:00 +22°C° 0 mm 5 mps 571 mmHg 24%
    13:00 +22°C° 0 mm 5 mps 571 mmHg 21%
    14:00 +23°C° 0 mm 6 mps 571 mmHg 18%
    15:00 +22°C° 0 mm 6 mps 570 mmHg 20%
    16:00 +21°C° 0 mm 5 mps 570 mmHg 22%
    17:00 +19°C° 0 mm 5 mps 569 mmHg 23%
    18:00 +18°C° 0 mm 4 mps 569 mmHg 28%
    19:00 +16°C° 0 mm 3 mps 568 mmHg 33%
    20:00 +14°C° 0 mm 2 mps 568 mmHg 37%
    21:00 +14°C° 0 mm 2 mps 568 mmHg 41%
    22:00 +13°C° 0 mm 2 mps 568 mmHg 45%
    23:00 +13°C° 0 mm 1 mps 568 mmHg 49%

    Day after tomorrow, 22 February, Friday

    Time Temperature Precipitation Wind Pressure Humidity
    00:00 +12°C° 0 mm 1 mps 567 mmHg 52%
    01:00 +12°C° 0 mm 1 mps 567 mmHg 54%
    02:00 +11°C° 0 mm 1 mps 566 mmHg 57%
    03:00 +11°C° 0 mm 1 mps 566 mmHg 57%
    04:00 +10°C° 0 mm 1 mps 566 mmHg 57%
    05:00 +10°C° 0 mm 1 mps 566 mmHg 57%
    06:00 +12°C° 0 mm 1 mps 568 mmHg 49%
    07:00 +14°C° 0 mm 1 mps 569 mmHg 41%
    08:00 +16°C° 0 mm 1 mps 571 mmHg 34%
    09:00 +19°C° 0 mm 1 mps 572 mmHg 28%
    10:00 +21°C° 0 mm 1 mps 573 mmHg 22%
    11:00 +24°C° 0 mm 1 mps 573 mmHg 16%
    12:00 +24°C° 0 mm 2 mps 573 mmHg 15%
    13:00 +25°C° 0 mm 2 mps 572 mmHg 15%
    14:00 +25°C° 0 mm 3 mps 572 mmHg 15%
    15:00 +24°C° 0 mm 3 mps 572 mmHg 18%
    16:00 +22°C° 0 mm 4 mps 571 mmHg 21%
    17:00 +21°C° 0 mm 4 mps 571 mmHg 24%
    18:00 +19°C° 0 mm 3 mps 570 mmHg 28%
    19:00 +18°C° 0 mm 2 mps 570 mmHg 32%
    20:00 +16°C° 0 mm 1 mps 570 mmHg 35%
    21:00 +15°C° 0 mm 1 mps 570 mmHg 37%
    22:00 +15°C° 0 mm 2 mps 570 mmHg 39%
    23:00 +14°C° 0 mm 2 mps 570 mmHg 41%

    23 February, Saturday

    Time Temperature Precipitation Wind Pressure Humidity
    00:00 +14°C° 0 mm 2 mps 569 mmHg 46%
    01:00 +13°C° 0 mm 1 mps 569 mmHg 51%
    02:00 +12°C° 0 mm 1 mps 568 mmHg 56%
    03:00 +12°C° 0 mm 1 mps 568 mmHg 60%
    04:00 +11°C° 0 mm 1 mps 568 mmHg 65%
    05:00 +11°C° 0 mm 1 mps 568 mmHg 69%
    06:00 +12°C° 0 mm 1 mps 569 mmHg 63%
    07:00 +13°C° 0 mm 0 mps 570 mmHg 57%
    08:00 +14°C° 0 mm 0 mps 572 mmHg 50%
    09:00 +16°C° 0 mm 0 mps 572 mmHg 44%
    10:00 +20°C° 0 mm 1 mps 573 mmHg 38%
    11:00 +22°C° 0 mm 1 mps 574 mmHg 32%
    12:00 +23°C° 0 mm 1 mps 574 mmHg 30%
    13:00 +23°C° 0 mm 2 mps 573 mmHg 28%
    14:00 +24°C° 0 mm 3 mps 573 mmHg 26%
    15:00 +23°C° 0 mm 2 mps 572 mmHg 31%
    16:00 +20°C° 0 mm 2 mps 572 mmHg 36%
    17:00 +19°C° 0 mm 2 mps 572 mmHg 41%
    18:00 +18°C° 0 mm 2 mps 572 mmHg 45%
    19:00 +17°C° 0 mm 2 mps 572 mmHg 49%
    20:00 +16°C° 0 mm 3 mps 572 mmHg 54%
    21:00 +15°C° 0 mm 2 mps 572 mmHg 58%
    22:00 +14°C° 0 mm 2 mps 572 mmHg 62%
    23:00 +13°C° 0 mm 2 mps 571 mmHg 66%

    24 February, Sunday

    Time Temperature Precipitation Wind Pressure Humidity
    00:00 +13°C° 0 mm 2 mps 571 mmHg 69%
    01:00 +13°C° 0 mm 2 mps 570 mmHg 72%
    02:00 +12°C° 0 mm 1 mps 570 mmHg 75%
    03:00 +12°C° 0 mm 2 mps 570 mmHg 77%
    04:00 +10°C° 0 mm 2 mps 570 mmHg 80%
    05:00 +10°C° 0 mm 2 mps 570 mmHg 82%
    06:00 +12°C° 0 mm 2 mps 571 mmHg 77%
    07:00 +13°C° 0 mm 2 mps 572 mmHg 73%
    08:00 +14°C° 0 mm 2 mps 573 mmHg 68%
    09:00 +16°C° 0 mm 2 mps 574 mmHg 58%
    10:00 +18°C° 0 mm 2 mps 574 mmHg 49%
    11:00 +20°C° 0 mm 2 mps 575 mmHg 40%
    12:00 +21°C° 0 mm 3 mps 574 mmHg 38%
    13:00 +21°C° 0 mm 3 mps 574 mmHg 37%
    14:00 +22°C° 0 mm 3 mps 574 mmHg 35%
    15:00 +21°C° 0.1 mm 3 mps 573 mmHg 42%
    16:00 +19°C° 0.1 mm 3 mps 572 mmHg 48%
    17:00 +18°C° 0.1 mm 3 mps 572 mmHg 55%
    18:00 +17°C° 0.1 mm 3 mps 572 mmHg 62%
    19:00 +16°C° 0.1 mm 2 mps 572 mmHg 68%
    20:00 +15°C° 0.1 mm 2 mps 572 mmHg 75%
    21:00 +14°C° 0 mm 2 mps 571 mmHg 77%
    22:00 +14°C° 0 mm 2 mps 571 mmHg 79%
    23:00 +13°C° 0 mm 2 mps 571 mmHg 82%

    25 February, Monday

    Time Temperature Precipitation Wind Pressure Humidity
    00:00 +13°C° 0 mm 1 mps 570 mmHg 82%
    01:00 +12°C° 0 mm 1 mps 570 mmHg 83%
    02:00 +11°C° 0 mm 0 mps 569 mmHg 84%
    03:00 +10°C° 0 mm 0 mps 569 mmHg 84%
    04:00 +10°C° 0 mm 0 mps 569 mmHg 83%
    05:00 +10°C° 0 mm 0 mps 569 mmHg 82%
    06:00 +13°C° 0 mm 1 mps 570 mmHg 74%
    07:00 +14°C° 0 mm 1 mps 571 mmHg 66%
    08:00 +16°C° 0 mm 1 mps 572 mmHg 58%
    09:00 +18°C° 0 mm 2 mps 573 mmHg 50%
    10:00 +20°C° 0 mm 2 mps 574 mmHg 42%
    11:00 +23°C° 0 mm 2 mps 574 mmHg 34%
    12:00 +22°C° 0 mm 3 mps 574 mmHg 33%
    13:00 +24°C° 0 mm 3 mps 574 mmHg 31%
    14:00 +25°C° 0 mm 4 mps 573 mmHg 30%
    15:00 +23°C° 0.2 mm 4 mps 573 mmHg 34%
    16:00 +21°C° 0.2 mm 3 mps 572 mmHg 38%
    17:00 +20°C° 0.2 mm 3 mps 572 mmHg 43%
    18:00 +19°C° 0.5 mm 2 mps 572 mmHg 48%
    19:00 +18°C° 0.5 mm 2 mps 571 mmHg 54%
    20:00 +16°C° 0.5 mm 1 mps 571 mmHg 59%
    21:00 +16°C° 0.1 mm 1 mps 571 mmHg 59%
    22:00 +15°C° 0.1 mm 1 mps 571 mmHg 60%
    23:00 +14°C° 0.1 mm 0 mps 571 mmHg 60%
    Show more